Volver al catálogo

STARLINK-32699

ActivoComunicacionesVLEO
NORAD 62482·PAYLOAD·🇺🇸 United States

Lanzado Dec 31, 2024 desde Cape Canaveral Space Force Station

Loading…

Próximos Pases (próximas 24 horas)

TLE

ActualizadoSource: CelesTrak SupGP

Época: Sep 15, 2026, 03:36 UTC

1 62482C 24254W   26258.15048611  .00001281  00000+0  46378-4 0  2589
2 62482  43.0047  29.6074 0001711 265.4423  15.0356 15.27587681    17

Sigue STARLINK-32699 en tiempo real con AllMySat

Download on the App Store